Wind_Speed
13 12 11 10 9 8 8 8 8 8 8 9 9 9 9 10 11 11 12 12 13 13 13 13 14 15 15 16 16 16 16 15 15 15 14 14 13 13 12 11 11 10 10 10 9 8 7 6 6 6 6 7 8 9 10 11 12 13 13 14 15 17 17 18 19 20 22 23 26 28 29 30 30 31 31 31 32 32 33 34 34 34 35 36 37
15 14 13 12 11 10 9 8 7 7 7 7 8 8 7 8 8 8 9 9 10 10 11 11 11 11 12 12 13 14 14 13 13 12 12 11 11 10 10 10 9 9 9 8 8 8 7 6 4 3 3 4 5 6 8 9 11 12 12 13 14 15 16 17 18 19 21 22 24 25 26 27 28 29 30 31 31 31 32 33 33 34 34 34 35
19 17 16 15 14 13 12 10 9 7 7 7 7 7 7 6 6 6 6 6 7 7 8 8 9 9 9 9 10 10 11 11 11 11 10 10 9 8 7 7 6 6 6 6 6 6 5 4 3 1 0 1 3 5 6 8 9 11 11 12 13 14 14 15 17 18 19 20 21 22 23 23 24 25 26 27 29 29 30 30 31 32 33 33 33
22 19 18 17 16 15 14 13 11 9 8 7 6 6 6 6 6 6 5 5 4 4 5 5 6 7 7 7 7 8 8 9 9 9 9 9 9 8 7 6 5 5 4 4 3 3 3 2 2 2 2 2 3 4 5 7 9 9 10 11 11 12 12 14 15 16 16 17 18 19 19 20 21 21 23 24 25 27 28 28 29 30 32 33 33
25 23 21 20 18 17 16 15 13 12 10 8 7 6 6 6 6 7 6 5 5 4 4 4 4 5 5 6 6 6 6 6 7 7 8 8 8 8 8 7 6 5 5 4 4 4 4 4 4 4 4 4 4 5 6 7 7 7 8 8 9 10 11 12 13 14 14 15 15 16 17 18 18 19 20 22 23 24 26 27 27 28 30 31 32
29 27 24 22 20 19 17 16 14 13 12 11 9 8 8 7 7 8 8 8 7 7 6 5 5 5 6 6 6 5 5 4 4 5 5 5 5 6 6 6 6 6 5 5 5 4 5 5 4 4 3 3 3 4 5 5 5 6 6 7 8 9 10 11 12 12 12 12 13 14 15 16 17 18 19 19 20 21 23 24 25 26 27 28 29
32 29 26 24 23 21 20 18 17 15 14 13 12 11 11 10 10 9 9 10 10 10 10 9 8 8 7 8 7 7 6 5 5 4 4 4 4 4 4 4 4 3 3 3 3 3 3 3 3 2 2 2 3 3 3 4 5 6 6 7 7 8 9 9 10 10 10 10 10 11 11 13 14 16 17 18 18 18 19 20 21 23 24 25 25
34 32 29 28 25 24 23 21 19 17 15 15 14 14 14 13 13 13 13 13 12 12 12 12 11 11 10 10 10 9 9 9 8 7 7 6 6 6 5 4 4 3 3 2 2 2 2 2 1 1 2 3 3 4 4 4 5 6 6 7 7 7 7 8 8 8 8 8 8 8 8 8 9 11 12 14 15 16 16 16 17 18 20 21 21
35 33 31 30 28 27 25 23 22 19 17 17 16 16 16 16 16 17 17 17 16 15 15 15 14 14 13 12 12 12 12 12 11 10 10 10 10 9 9 7 7 6 5 5 4 4 3 3 2 1 1 1 2 3 4 5 5 6 6 6 6 7 7 7 8 7 7 7 6 6 5 5 5 6 7 9 10 12 14 15 15 15 16 17 18
36 34 33 32 30 29 27 25 24 22 20 20 20 19 20 19 19 20 20 20 20 19 18 17 16 16 17 16 16 15 15 15 14 13 12 11 11 11 11 11 10 9 8 8 8 7 7 7 6 5 5 4 4 4 5 5 6 6 7 6 6 6 6 7 7 7 7 6 6 6 5 4 4 4 4 4 6 8 10 12 13 14 14 14 15
38 37 35 34 32 30 29 28 27 25 23 22 22 23 24 24 23 23 22 22 22 23 23 22 20 19 20 20 19 19 18 18 17 16 14 14 13 13 13 13 13 13 12 11 11 10 10 10 10 9 9 8 8 8 7 8 8 9 9 8 8 8 8 7 6 8 9 8 6 6 6 5 5 5 5 4 3 3 5 7 10 12 13 13 12
42 40 38 36 34 33 32 31 30 29 27 26 26 27 26 26 26 25 23 23 24 25 25 25 24 23 23 23 23 22 22 22 21 19 18 17 17 17 16 16 15 15 15 15 14 13 12 12 12 12 11 11 11 10 10 10 11 11 11 11 10 10 10 9 8 9 11 11 10 9 8 7 7 7 7 8 7 5 3 3 5 7 10 12 10
45 42 40 38 37 36 35 33 31 30 29 29 30 29 29 28 27 27 26 25 26 26 26 25 26 26 26 27 27 26 26 26 26 25 23 22 22 22 21 20 19 18 17 17 16 15 14 14 14 14 14 13 12 12 12 12 12 12 12 13 14 13 13 12 11 12 12 12 13 13 13 12 11 9 9 10 10 9 7 5 4 4 6 9 8
47 44 42 39 39 38 37 34 33 32 32 32 32 32 33 32 30 30 30 30 29 29 28 27 28 28 29 30 30 30 29 30 31 31 30 28 27 27 26 25 24 23 22 20 19 18 17 17 17 16 15 15 14 15 15 14 13 12 13 14 16 16 16 15 15 15 15 15 15 15 16 15 15 14 12 11 12 12 11 10 9 8 7 6 6
48 46 43 42 41 41 39 37 35 35 35 35 34 34 36 37 35 33 32 33 34 34 33 32 31 32 33 34 34 34 33 33 33 35 35 34 33 32 30 29 28 28 27 25 23 22 21 21 21 19 17 17 17 18 18 17 15 14 14 16 19 19 19 18 18 18 18 19 18 18 18 17 18 18 17 15 14 14 15 15 14 14 12 9 7
50 46 44 44 44 44 42 40 38 37 37 37 37 37 38 39 38 36 35 36 37 37 38 37 36 35 36 37 37 36 36 36 36 37 38 38 38 36 34 32 32 31 30 28 27 27 26 25 24 22 20 19 18 18 20 20 20 19 19 19 21 22 22 21 20 20 21 22 23 23 22 21 20 20 20 19 18 17 18 19 18 17 16 15 12
51 48 46 45 47 48 47 44 41 39 40 40 40 40 42 41 39 40 41 40 39 39 40 41 41 40 38 38 39 39 39 40 39 39 39 39 40 40 37 36 35 34 33 32 31 30 29 28 27 26 23 22 21 20 20 21 23 24 22 21 23 24 24 23 22 22 23 25 26 27 27 26 25 24 23 22 22 21 21 20 19 17 17 17 16
54 51 49 49 49 50 48 45 44 43 44 46 45 44 46 45 42 43 46 44 41 40 42 43 44 44 43 41 40 40 41 42 40 38 38 40 41 42 40 39 38 37 36 36 35 34 33 31 31 29 27 26 25 24 22 22 24 25 24 23 25 26 25 24 24 25 27 29 29 29 29 29 28 27 26 26 26 25 24 24 22 20 20 20 21
59 56 55 55 53 51 48 47 48 48 49 51 48 45 46 47 46 48 49 46 43 42 43 46 47 46 46 46 44 42 43 43 41 38 38 39 41 42 42 41 40 39 38 38 38 37 37 35 33 32 29 28 28 27 26 25 26 27 27 27 28 28 28 27 27 29 31 32 32 31 30 30 29 29 28 28 28 29 29 29 29 28 27 26 27
65 62 60 60 57 53 51 51 50 50 51 52 48 42 42 45 48 51 51 50 48 44 44 49 50 47 47 48 48 46 47 47 45 42 40 40 40 41 41 41 40 40 40 40 40 40 40 37 35 33 32 30 30 30 30 29 28 29 31 32 31 31 32 32 32 34 35 34 33 32 32 31 31 31 30 30 30 30 32 33 35 36 35 33 33
69 66 64 63 60 58 56 55 53 51 52 54 49 42 40 43 47 51 51 51 52 49 48 52 55 52 50 51 50 49 50 51 50 47 45 43 41 41 41 42 42 41 40 41 41 42 42 40 37 35 35 34 34 34 34 33 33 32 33 34 34 34 34 35 34 36 37 36 35 34 34 34 35 36 36 35 34 33 35 37 39 40 40 40 40
71 69 67 66 65 63 62 61 58 54 53 55 52 47 45 47 48 51 53 54 55 55 55 58 60 58 55 54 54 53 53 54 55 53 50 48 46 44 44 45 45 44 42 42 42 43 44 43 41 38 37 37 37 37 37 37 36 35 35 36 36 35 36 37 36 37 39 39 37 36 36 37 38 40 41 41 40 38 39 42 43 42 41 42 45
74 72 70 69 69 69 68 67 64 59 56 58 57 52 50 52 53 54 56 58 60 61 61 62 64 64 61 59 58 57 56 56 57 57 54 53 51 50 50 50 50 48 46 45 44 44 46 47 47 45 42 40 39 39 40 40 39 39 38 38 38 38 40 41 39 38 40 39 36 36 39 42 42 43 44 44 43 42 44 46 47 46 46 45 47
78 76 73 71 72 72 72 71 70 65 61 61 61 58 54 54 56 56 57 59 63 66 66 65 65 66 65 63 62 62 61 60 61 61 60 58 56 55 55 55 53 52 50 48 46 46 48 49 50 50 49 48 47 46 46 45 43 41 40 39 39 40 41 42 42 43 44 42 39 39 43 47 47 46 47 47 47 46 47 48 49 49 50 51 51
80 78 76 74 74 73 73 74 74 71 67 64 65 64 60 57 57 58 58 58 59 62 66 68 69 70 68 67 66 67 66 65 65 66 66 65 62 60 59 58 57 56 55 52 50 50 50 51 52 53 53 54 53 52 51 50 48 46 44 42 41 40 40 42 44 45 46 46 46 46 49 53 53 52 52 52 51 51 52 52 52 52 53 54 56
81 81 80 78 77 75 75 76 77 76 74 71 69 69 69 65 63 62 62 61 60 60 62 65 69 72 73 73 73 72 71 70 70 70 69 68 67 66 65 63 63 62 60 57 55 55 54 54 55 56 56 56 56 56 55 55 55 54 52 50 48 46 45 45 47 48 49 52 55 56 57 58 58 57 57 57 56 57 57 57 57 57 57 58 59
84 85 84 82 81 79 77 78 80 81 80 78 75 73 74 74 72 71 70 69 68 67 66 66 67 69 72 74 76 76 76 76 75 74 72 71 71 71 69 68 68 68 67 64 62 61 60 59 59 59 58 58 57 57 58 59 60 60 60 60 59 57 56 55 55 56 58 61 63 64 64 63 62 62 63 62 61 61 62 62 62 62 63 63 63
88 88 88 87 86 83 80 80 83 85 86 84 81 78 77 77 78 77 76 74 74 73 72 72 72 71 71 72 74 74 75 76 76 76 75 75 75 75 73 71 70 71 73 71 68 66 66 65 66 65 65 63 62 60 60 60 61 63 65 66 67 67 66 64 63 63 64 65 66 67 68 69 69 69 69 67 66 66 66 66 66 67 67 68 68
92 91 91 91 91 90 87 85 85 87 89 89 87 84 82 80 80 80 78 77 76 76 75 76 76 76 75 73 73 72 72 74 75 76 76 76 77 77 76 74 72 72 74 74 73 71 70 70 70 71 71 70 68 66 64 62 62 64 65 68 73 76 74 70 69 70 69 68 69 71 71 72 73 73 73 72 71 71 72 72 72 72 72 73 73
95 95 95 95 95 95 94 91 89 90 91 92 92 89 86 83 82 82 82 80 78 77 77 78 78 79 79 78 77 76 75 75 77 79 79 78 78 78 79 78 77 76 75 76 76 76 74 74 74 74 75 74 74 74 72 70 68 68 67 68 74 81 80 75 74 75 76 76 76 76 76 75 75 76 77 78 78 78 79 79 78 78 78 77 77
99 99 99 99 99 99 98 96 95 94 93 93 94 92 89 85 83 84 85 84 82 80 79 79 80 81 81 82 81 80 80 80 81 82 82 82 82 81 82 82 82 81 81 81 81 81 80 79 78 78 79 79 80 80 80 79 77 77 75 73 75 81 85 82 79 80 81 81 81 82 82 82 82 82 82 83 84 84 85 84 84 83 82 82 82
102 102 102 102 102 102 101 100 99 98 98 97 96 96 93 88 85 85 87 88 87 85 83 82 82 83 84 84 85 84 84 84 84 85 85 85 86 86 86 86 85 85 86 86 85 85 84 83 83 82 82 82 83 84 84 85 84 84 84 82 81 83 87 88 86 84 85 85 85 86 86 87 88 88 88 88 87 87 88 88 88 87 87 86 87
106 104 104 105 106 106 105 104 103 102 102 102 101 101 99 95 90 88 89 90 91 90 88 87 85 84 84 85 86 87 88 88 87 87 88 88 88 89 89 89 89 89 89 89 89 89 88 88 87 86 86 86 87 87 88 88 88 88 88 88 88 88 90 91 90 89 88 88 89 89 90 90 91 91 92 91 91 90 91 91 92 92 91 92 92
113 109 107 107 108 109 109 108 107 106 106 106 106 106 105 103 99 95 92 93 94 94 93 92 91 89 86 85 85 86 87 88 88 88 89 89 90 90 90 91 91 91 91 91 91 91 92 91 91 90 90 90 91 92 92 92 92 91 91 91 92 93 93 94 93 92 91 91 91 92 92 93 94 95 95 94 94 94 94 95 96 96 96 97 98
119 116 113 110 110 112 113 113 111 110 109 109 109 109 109 110 109 105 101 98 97 97 97 96 96 95 93 92 90 89 88 88 89 89 90 90 91 91 92 92 92 92 93 93 93 94 95 95 95 95 95 95 95 95 96 96 96 95 95 95 95 95 96 96 95 95 95 94 94 95 95 96 97 97 97 97 97 98 98 99 99 100 101 102 102
123 122 119 116 114 115 116 117 116 115 114 113 112 112 113 113 114 114 111 108 105 103 102 101 100 99 99 98 97 96 95 94 93 93 93 93 93 94 94 93 93 94 94 95 95 96 97 97 98 98 98 97 97 97 97 98 98 98 97 97 97 98 98 98 99 99 99 99 98 99 99 99 99 99 100 100 101 101 101 102 102 103 104 105 106
126 126 124 122 119 118 119 120 121 121 120 118 117 116 116 116 117 118 118 117 114 112 109 108 106 105 104 103 103 103 102 101 100 99 99 99 99 98 98 98 97 96 96 96 97 97 98 98 99 99 98 98 98 98 98 98 99 99 99 99 99 100 100 100 101 101 102 102 102 102 102 102 102 103 104 104 104 105 105 105 105 106 107 108 109
126 128 128 128 126 124 123 123 124 124 124 124 123 121 121 121 121 121 122 122 122 120 118 116 114 112 111 110 109 108 108 107 106 106 105 105 104 104 104 104 104 103 103 102 101 101 101 100 100 100 100 100 99 99 99 99 99 100 100 101 101 102 102 102 102 103 104 104 105 105 105 105 106 107 107 108 108 109 109 109 109 110 111 112 113
125 127 130 131 131 130 129 128 128 128 128 127 127 127 126 126 125 125 125 125 125 125 124 123 121 119 118 117 116 115 114 113 112 111 110 109 108 108 108 108 109 109 109 108 108 107 106 106 105 104 104 104 103 103 102 102 101 102 103 103 104 104 104 105 105 105 106 107 108 108 109 109 110 111 111 111 112 112 113 113 113 113 114 115 116
125 126 128 131 133 134 133 133 133 133 132 131 131 130 130 130 130 130 131 130 129 129 128 127 126 125 124 123 122 121 120 119 117 116 115 114 113 112 111 111 111 111 111 112 112 112 111 111 110 109 109 109 109 109 108 108 107 107 107 108 108 108 107 108 108 108 109 110 111 112 113 113 113 114 114 115 115 116 116 117 117 118 118 119 120
128 128 128 129 132 134 135 137 137 137 137 136 136 135 134 134 134 134 135 136 136 135 133 132 130 130 129 128 127 126 125 124 122 121 120 119 118 117 116 115 114 114 114 114 115 115 115 115 114 114 114 114 114 114 114 114 114 114 113 113 113 113 113 112 112 113 113 114 115 116 116 117 117 118 119 119 120 121 121 122 123 123 124 124 125
131 131 131 131 131 133 135 137 139 141 141 141 140 140 139 139 138 137 138 139 140 140 139 138 136 135 134 133 132 131 131 130 128 127 126 124 124 123 122 121 120 119 118 118 118 118 118 118 119 119 119 119 118 118 119 119 119 119 119 120 120 119 120 120 120 120 120 121 121 121 121 121 122 123 124 125 126 126 127 128 128 129 129 130 130
134 135 135 134 134 134 135 136 138 141 143 145 145 144 144 143 142 142 141 141 142 143 143 143 142 140 139 138 137 136 136 135 135 134 133 132 130 129 128 127 126 125 125 124 124 124 123 123 123 123 123 123 123 123 124 124 125 125 125 125 125 125 125 126 126 126 127 127 127 127 127 127 127 128 129 130 131 132 132 132 133 133 133 134 135
136 137 138 138 138 138 138 138 138 139 141 144 146 148 148 148 147 147 146 145 145 145 146 146 146 145 143 142 141 141 140 140 139 139 139 138 137 136 136 135 135 134 134 133 133 133 133 132 132 132 132 131 131 131 131 131 131 131 131 132 131 131 131 132 132 132 132 132 133 133 133 133 133 134 134 135 135 136 136 136 136 136 137 137 137
133 137 139 140 141 142 142 142 142 142 142 143 144 146 148 150 151 151 151 151 150 149 149 149 149 149 149 148 147 146 145 144 144 143 143 142 142 142 142 141 142 142 142 142 142 142 141 141 141 140 140 139 139 138 137 137 136 135 135 135 135 135 135 136 136 136 136 137 137 137 138 138 138 138 138 138 138 139 139 140 140 140 141 141 142
125 130 135 138 141 143 144 145 146 146 146 146 146 146 146 147 149 151 153 154 155 155 154 153 152 152 152 152 152 151 150 150 149 149 148 148 147 147 147 146 147 147 147 148 148 148 147 147 147 146 146 145 144 143 142 141 139 138 137 137 136 137 137 137 137 138 138 138 139 139 140 140 140 140 140 141 141 142 142 143 143 144 144 145 145
112 119 124 130 134 139 142 145 147 148 149 149 150 150 149 149 149 149 150 151 153 155 156 157 157 157 157 157 156 156 155 155 154 154 154 154 153 153 153 153 153 153 153 152 152 152 152 152 152 152 151 151 151 150 149 147 145 143 141 140 139 138 137 137 138 138 139 140 140 141 141 142 142 142 143 143 143 144 145 145 146 146 147 147 148
101 106 112 117 122 128 132 137 141 145 148 150 151 152 153 153 153 152 152 152 152 152 154 155 157 159 161 162 162 162 161 161 161 161 161 160 160 160 160 160 159 159 157 156 155 155 156 156 156 156 156 156 155 155 154 154 153 151 150 148 146 145 143 142 142 141 141 141 142 142 142 143 143 143 144 145 145 146 147 147 148 149 150 150 151
93 97 101 105 110 114 119 124 128 133 137 142 145 149 151 153 154 155 155 155 154 154 154 154 155 156 158 159 161 162 163 164 165 165 165 166 166 166 165 165 165 164 162 161 159 158 157 157 157 157 157 157 156 155 155 154 154 153 153 152 151 150 149 148 148 147 146 146 145 145 145 145 145 145 145 146 146 147 147 148 149 149 150 151 151
87 90 93 96 100 104 107 111 115 119 123 128 132 136 141 144 148 150 153 154 155 156 156 156 156 156 156 156 157 158 159 160 161 163 164 164 165 165 165 165 165 164 163 162 161 160 159 158 157 157 157 156 156 155 154 154 153 152 152 152 151 151 150 150 149 149 149 148 148 148 148 148 148 147 147 148 148 148 148 149 149 150 150 151 151
82 84 87 89 92 96 99 102 105 108 111 115 118 122 125 129 133 137 141 144 147 150 152 154 155 156 157 157 157 158 158 158 158 159 160 161 161 162 162 162 162 162 161 161 160 160 159 158 158 157 157 157 156 156 155 154 154 153 153 152 152 152 151 151 150 150 150 150 149 149 149 149 149 149 149 149 150 150 150 150 151 151 152 152 153
Wind_Direction
203 197 192 187 184 177 167 157 146 138 129 120 114 106 100 96 93 91 90 89 90 92 99 110 122 131 138 143 147 149 150 150 149 148 149 150 150 150 150 147 143 138 133 131 130 128 123 110 94 81 66 53 43 37 33 32 34 36 36 38 40 45 53 62 69 72 74 74 73 73 72 72 71 71 70 69 68 66 65 64 63 62 60 58 57
211 206 200 195 194 193 187 180 170 159 150 141 133 124 115 108 102 98 96 93 92 92 92 97 108 120 132 141 147 153 157 159 160 159 159 158 158 159 159 156 153 148 143 141 139 140 138 132 120 99 70 44 31 24 24 26 29 29 29 31 35 42 55 66 72 75 77 76 74 72 71 70 69 68 68 69 69 67 64 62 61 61 60 59 57
215 212 208 203 199 199 198 194 188 180 172 165 158 149 141 132 121 113 109 104 100 99 99 97 99 107 119 131 142 151 160 166 171 175 178 181 183 185 183 180 177 170 165 161 157 156 155 156 155 150 76 5 7 11 19 24 24 22 21 24 30 41 58 69 73 76 77 76 75 74 72 72 71 70 69 69 69 69 67 65 62 61 60 60 58
220 218 215 212 206 201 201 200 197 195 191 188 187 183 171 164 155 145 135 130 125 122 121 117 114 113 114 122 132 145 156 166 174 181 187 194 200 206 212 216 217 220 222 222 220 217 214 218 238 265 290 312 343 2 13 18 20 20 23 27 33 45 61 70 74 75 76 76 76 76 76 76 75 74 73 72 71 70 69 68 66 63 62 61 61
226 224 220 218 213 209 207 205 203 202 203 203 207 212 206 197 190 183 175 171 168 167 167 164 156 150 142 137 136 140 150 162 175 184 190 195 201 208 215 221 227 234 242 250 258 264 268 269 275 284 299 315 341 358 10 17 25 31 34 38 46 56 66 71 73 76 77 79 80 80 81 81 81 80 79 77 75 73 72 70 69 67 65 63 63
228 226 223 221 218 216 215 214 213 212 212 213 217 224 231 231 225 215 208 204 200 196 195 199 198 193 185 179 172 167 166 167 173 186 194 199 205 209 214 221 226 231 237 244 253 261 268 273 278 286 300 324 347 7 21 38 51 56 58 61 66 70 74 76 77 79 81 82 82 83 83 83 84 84 84 82 80 77 74 71 70 69 67 65 64
227 227 227 227 224 222 223 222 221 220 219 221 222 227 235 243 247 243 237 231 224 218 214 213 214 214 209 206 204 202 202 202 201 199 200 203 208 211 210 206 210 216 225 234 243 252 258 269 285 306 336 3 18 31 48 69 80 81 80 77 78 80 80 80 81 81 81 83 83 83 82 82 83 82 82 82 81 79 77 73 71 69 68 67 65
226 226 227 229 227 226 227 227 228 229 229 230 229 228 233 240 248 253 254 251 245 238 233 230 228 226 221 218 215 214 214 215 216 216 212 211 213 213 212 209 206 206 204 209 224 246 261 278 318 15 46 49 44 43 46 56 64 69 70 69 69 71 72 72 73 74 75 77 80 83 82 78 78 78 77 76 73 72 73 72 71 69 66 65 64
226 227 227 227 226 227 227 228 231 234 237 240 238 234 233 234 240 247 252 255 256 255 252 248 244 239 236 231 226 223 222 221 220 220 218 217 218 218 217 216 218 219 221 222 223 229 239 245 254 284 350 10 12 13 16 19 22 28 36 42 46 47 48 48 45 47 53 57 59 63 68 66 63 65 70 72 70 66 64 63 64 64 62 59 56
224 226 226 226 227 229 229 230 231 232 234 238 242 245 246 246 246 245 246 249 253 256 257 257 254 250 247 244 239 235 233 232 230 228 226 226 227 228 228 228 230 232 234 235 236 235 236 237 240 250 260 273 290 305 320 333 339 347 356 2 10 13 17 23 15 4 10 21 26 27 27 25 24 18 24 53 67 65 61 57 55 55 56 53 47
223 223 224 225 227 229 229 231 235 235 234 237 242 249 255 259 259 253 248 248 248 248 250 252 252 252 251 249 246 244 243 242 241 238 237 238 239 239 239 240 241 243 244 246 247 247 246 246 248 252 257 264 272 282 295 306 313 321 328 334 339 337 341 352 340 322 330 339 344 353 356 356 359 349 337 338 5 42 55 54 49 46 45 45 41
221 221 222 223 226 227 227 231 235 238 239 243 246 248 250 254 258 256 253 251 250 249 249 248 248 249 250 250 249 246 246 246 245 243 242 243 246 248 248 248 248 249 251 251 252 253 252 253 256 259 263 267 270 274 280 287 298 307 311 314 316 315 317 321 309 303 312 318 317 320 323 325 331 332 324 317 315 317 334 18 34 36 33 34 32
220 221 221 222 224 225 225 227 231 236 242 249 253 251 247 245 248 251 250 247 248 251 253 253 252 251 250 250 249 247 245 246 246 245 242 241 244 248 251 254 254 254 255 256 255 255 254 254 257 259 260 264 268 266 265 271 284 295 302 305 306 303 302 303 300 299 304 307 307 307 306 306 308 307 305 303 301 301 300 300 311 339 10 20 19
219 221 221 221 224 226 226 226 229 234 240 246 250 252 250 247 245 247 247 243 241 244 248 253 256 258 258 255 251 247 245 245 246 247 246 244 244 245 248 252 254 254 256 257 257 257 257 255 255 257 258 261 267 267 266 269 278 288 296 300 299 297 295 295 295 297 297 296 297 297 297 297 297 293 290 287 288 291 292 291 289 291 306 339 354
220 221 222 223 225 228 230 230 232 236 240 244 248 251 251 250 248 248 250 248 244 243 243 245 250 258 262 261 256 250 245 244 246 248 248 248 247 247 248 248 249 251 252 254 255 255 256 255 254 256 257 260 266 269 266 266 273 284 294 294 291 289 288 287 288 291 293 293 291 288 287 288 289 287 283 279 276 277 279 279 280 280 281 289 302
220 220 222 225 228 229 230 231 235 239 241 245 248 250 251 250 249 249 250 251 250 249 247 245 244 248 254 258 259 255 247 244 245 246 247 249 249 249 249 248 249 251 252 252 253 253 254 255 255 255 257 260 267 270 265 263 268 276 283 286 285 283 282 282 283 287 292 295 293 288 283 280 279 278 278 277 274 270 269 269 270 271 272 274 277
219 218 219 224 229 230 229 231 235 238 240 240 241 245 249 249 249 248 249 252 254 254 253 250 246 244 245 250 258 257 250 246 247 246 246 249 250 250 250 250 250 252 253 254 255 255 255 255 254 254 255 256 261 264 261 260 262 266 271 277 281 281 279 279 281 286 292 296 295 290 284 279 276 275 275 275 274 270 267 265 265 267 269 272 275
217 216 217 221 226 228 228 231 233 235 236 235 233 238 244 247 247 247 248 252 256 256 255 253 250 248 246 246 252 254 250 248 249 248 246 248 251 251 252 251 251 252 254 255 257 258 258 257 255 255 255 254 255 259 260 259 259 261 263 269 275 278 279 278 280 286 292 296 295 291 284 279 277 276 275 275 275 273 271 268 268 268 268 270 273
218 216 216 220 225 226 225 227 230 232 233 233 233 238 243 244 244 244 245 247 249 251 255 255 252 251 250 248 246 246 246 247 249 250 250 250 252 253 253 253 252 252 253 255 257 258 259 258 256 255 255 254 253 255 258 259 259 259 259 261 266 272 275 277 281 287 292 294 294 291 284 279 279 280 279 277 277 276 275 276 277 277 275 274 274
219 217 216 218 222 223 223 225 227 230 231 231 235 243 244 243 243 242 241 243 243 244 250 254 253 252 252 250 247 243 243 245 246 248 250 252 253 254 255 256 254 253 253 254 256 258 260 259 256 255 255 253 254 255 256 259 260 257 255 257 261 267 270 274 280 285 288 291 291 287 282 278 279 281 281 280 280 279 279 282 284 283 280 279 280
220 219 218 219 221 222 224 226 227 228 228 229 234 241 239 237 241 242 240 241 242 241 244 248 250 250 250 250 249 246 244 244 243 244 246 249 251 253 255 257 257 255 254 253 254 256 258 257 255 254 254 253 255 257 258 260 262 259 256 256 259 263 267 272 277 281 283 284 286 284 281 278 278 278 279 280 282 282 283 288 292 289 282 277 278
222 222 222 222 222 223 225 228 228 228 227 226 231 237 233 230 235 240 239 240 241 240 241 243 246 248 248 249 249 249 247 244 243 243 243 245 248 251 254 256 257 256 255 254 253 253 254 253 253 254 254 254 256 259 261 262 262 262 262 262 262 266 271 274 278 281 280 278 278 278 277 278 279 280 280 281 282 285 289 293 297 297 290 281 278
223 223 224 224 224 225 226 227 228 229 228 227 229 233 233 230 232 237 239 239 240 239 240 241 243 244 246 247 248 249 249 246 243 242 243 244 247 250 252 254 257 257 256 254 254 253 253 253 252 253 256 258 260 263 263 262 261 262 265 266 268 272 278 281 281 279 274 272 271 272 274 276 278 280 281 282 283 286 289 292 294 296 295 291 286
225 225 225 225 226 227 227 228 228 229 229 230 229 230 232 232 233 235 238 239 239 240 240 241 242 243 244 246 247 249 249 248 245 244 244 246 248 250 251 253 255 256 255 254 255 255 255 255 256 256 258 260 263 266 264 261 261 262 263 266 269 273 276 277 275 272 270 267 265 267 272 275 277 279 281 281 282 284 286 288 290 292 294 293 291
225 226 226 226 227 228 228 228 229 229 230 232 231 229 229 231 231 232 234 236 237 239 240 241 242 242 244 245 246 247 248 249 248 247 247 248 249 252 254 254 254 254 254 253 254 255 256 257 258 259 260 261 264 266 265 263 263 263 263 264 266 267 269 269 268 269 271 270 267 267 270 274 276 279 280 280 281 282 283 284 286 288 288 288 288
225 226 226 226 227 228 228 228 230 231 231 233 233 232 230 230 231 231 233 235 235 236 238 240 242 243 244 244 244 245 247 248 248 249 249 249 250 253 256 257 255 254 254 253 254 255 256 257 257 259 261 263 264 267 267 266 266 265 264 262 261 261 263 263 263 264 267 269 271 271 272 273 274 276 278 280 281 281 282 283 284 284 284 284 284
224 225 225 226 227 227 227 227 230 232 232 233 234 234 232 232 233 235 236 237 237 237 238 239 241 244 245 246 247 247 248 248 248 249 251 252 252 253 254 256 255 253 253 253 253 253 254 256 256 257 259 260 262 265 266 267 267 267 266 264 262 261 261 260 261 263 265 268 271 272 272 272 272 274 276 278 279 278 279 280 281 281 282 282 282
224 224 224 224 225 226 226 226 230 233 234 234 234 235 235 234 235 236 238 239 240 239 239 239 239 241 243 246 248 250 250 249 250 250 251 253 254 254 255 255 254 253 252 252 252 252 252 254 255 256 257 259 260 262 263 265 266 267 267 267 265 264 263 264 266 267 268 269 270 270 271 272 273 274 276 277 276 275 276 277 278 279 280 281 281
224 224 224 224 225 225 226 227 229 232 234 235 235 236 237 237 236 236 238 240 240 241 240 240 240 240 241 242 244 246 249 250 251 252 253 254 255 255 256 256 255 254 252 252 251 251 252 253 255 257 258 260 261 262 262 263 265 266 267 268 267 267 266 267 268 269 270 269 269 269 270 272 273 274 275 275 275 275 275 277 278 280 281 281 281
225 224 224 225 226 226 228 229 229 231 233 235 235 236 238 239 238 237 237 237 238 240 240 241 241 241 242 242 242 242 244 247 249 251 253 253 254 255 256 256 257 256 255 253 251 251 252 253 255 256 258 260 261 262 263 263 264 265 266 266 267 269 269 268 268 269 270 271 271 271 271 272 273 272 272 273 274 275 276 278 280 281 282 282 282
226 226 225 226 226 228 228 229 228 229 232 234 235 235 236 237 238 238 237 236 235 236 238 239 240 241 241 242 242 242 242 244 247 250 252 252 253 253 254 255 256 257 257 255 253 253 253 254 255 257 259 261 262 263 264 264 265 265 265 265 265 268 271 271 270 270 270 271 272 273 273 273 273 273 273 273 274 275 276 277 278 279 280 280 280
226 227 226 226 227 228 229 229 229 229 230 233 235 235 235 235 235 236 237 236 235 234 234 236 238 239 240 241 241 242 242 244 246 249 251 252 252 252 252 253 254 255 256 256 255 255 255 256 257 259 261 262 263 264 265 265 265 266 266 266 265 266 269 271 272 271 271 271 272 272 273 274 274 274 274 274 274 274 274 275 276 277 277 278 278
227 228 228 228 227 228 229 229 229 229 230 231 233 235 236 235 235 234 235 235 235 234 233 233 234 236 238 240 241 242 243 244 246 248 250 252 253 253 253 253 254 254 255 255 255 255 256 257 258 260 262 263 264 264 265 266 266 266 267 268 268 268 269 271 272 272 272 272 271 272 272 273 274 275 275 275 275 275 274 274 275 275 276 276 277
229 229 229 229 229 229 229 229 230 230 230 231 232 234 236 236 236 235 234 234 234 234 234 233 233 234 235 238 240 242 244 245 247 248 250 252 254 254 254 254 255 255 256 256 256 256 256 257 258 260 261 263 264 264 265 265 266 267 268 269 270 270 271 271 272 272 272 271 271 271 272 273 274 274 275 276 276 276 276 276 276 276 275 275 276
231 231 230 230 230 230 230 230 230 230 231 231 232 233 235 236 237 236 235 235 235 234 234 234 234 234 235 236 238 240 243 245 246 248 249 251 252 254 255 255 255 256 256 257 257 258 258 259 260 261 262 263 263 264 265 266 267 267 268 269 270 271 271 272 273 273 273 273 272 271 271 272 273 274 275 276 276 277 277 277 276 276 275 275 276
232 233 232 232 232 231 231 231 231 232 232 232 233 233 234 235 236 237 237 236 236 236 236 235 235 235 236 236 237 238 240 242 243 245 247 248 250 251 253 254 255 256 256 257 258 259 259 260 261 262 262 263 263 264 264 265 266 267 268 268 269 269 270 272 273 273 274 274 274 273 273 273 274 274 275 275 276 276 277 276 276 275 275 275 275
232 233 234 233 233 233 232 232 233 233 233 234 234 234 234 235 236 237 237 238 237 237 237 237 237 237 237 238 238 239 240 241 242 243 244 245 247 248 250 252 253 254 255 256 257 258 259 260 261 262 262 263 263 264 264 265 265 266 267 267 268 269 269 270 271 272 272 273 273 274 274 274 275 275 275 275 276 276 276 275 275 275 275 275 275
233 233 234 234 234 234 234 234 234 234 234 235 235 236 236 236 236 237 238 238 238 238 238 239 239 240 240 240 241 241 242 243 243 244 245 246 247 247 249 250 251 252 253 254 255 256 257 258 259 260 261 261 262 263 264 264 265 266 266 267 268 269 269 270 270 271 271 272 272 272 273 273 274 274 274 275 275 275 275 275 275 274 275 275 275
235 235 235 235 236 236 235 235 235 235 235 236 236 236 237 237 237 238 239 239 239 239 239 239 240 240 241 242 243 243 244 244 245 246 246 247 248 249 249 250 251 252 253 254 254 255 256 256 257 258 258 259 260 260 261 262 263 264 265 267 268 269 269 270 270 271 271 272 272 272 272 273 273 273 273 273 273 273 274 274 274 274 274 275 275
238 237 237 237 237 237 237 236 236 237 237 237 237 237 237 237 238 239 240 240 240 241 240 240 241 241 241 242 243 244 245 245 246 246 247 247 248 249 250 251 252 253 253 254 255 255 256 257 257 258 258 258 259 259 260 260 261 262 263 264 266 267 268 269 270 270 271 272 272 273 273 273 273 273 273 273 273 273 273 274 274 274 275 275 276
241 241 240 239 239 238 238 238 237 238 238 238 239 239 239 239 239 239 240 241 242 242 242 242 242 242 242 243 243 244 245 246 246 247 247 248 249 249 250 251 252 253 254 255 255 256 257 257 258 259 259 260 260 261 261 262 262 262 263 264 265 266 267 268 269 270 271 271 272 272 273 273 273 274 273 274 274 274 274 274 275 275 276 276 276
243 243 243 242 242 241 240 240 239 239 239 239 240 240 241 241 241 241 241 241 242 243 243 244 244 244 244 244 245 245 246 246 247 248 248 249 249 250 250 251 251 252 253 254 255 256 257 258 259 259 260 261 261 261 262 262 263 264 265 266 267 268 268 269 270 270 271 271 272 272 273 273 274 274 274 275 275 275 275 275 276 276 276 276 277
243 243 244 244 244 244 243 243 242 241 241 241 241 241 242 242 243 243 243 243 242 243 243 244 244 245 245 245 246 247 247 248 248 249 249 250 250 251 251 252 252 253 254 255 255 256 257 258 259 260 261 261 262 262 263 263 264 264 265 266 267 268 269 269 270 271 271 272 272 273 273 274 274 275 275 275 276 276 276 276 276 277 277 277 277
244 244 244 245 245 246 246 246 245 244 243 243 243 243 243 243 243 244 244 245 244 244 244 244 245 245 246 246 247 248 249 250 250 251 251 252 252 253 253 254 254 255 256 257 257 258 259 260 261 261 262 263 263 264 264 265 265 266 266 267 268 268 269 270 270 270 271 272 272 273 273 274 274 274 275 275 275 276 276 276 276 276 277 277 277
245 245 245 245 246 246 246 247 247 247 247 246 246 245 245 244 244 244 245 245 246 246 246 246 246 246 246 247 248 249 250 251 252 253 253 254 255 255 255 256 256 257 258 259 260 261 261 262 263 264 265 265 266 266 267 267 267 267 268 268 268 269 269 270 270 271 271 272 272 273 273 273 274 274 274 274 275 275 275 275 276 276 276 277 277
247 247 247 247 247 247 247 247 248 248 248 249 249 248 248 247 247 246 246 246 246 247 247 247 247 247 247 248 248 249 250 251 253 254 255 256 256 257 257 258 258 259 260 260 261 261 262 263 264 265 266 267 267 268 268 269 269 269 269 268 268 269 269 269 270 270 271 271 272 272 273 273 273 274 274 274 274 275 275 275 276 276 276 277 277
249 248 248 248 248 248 248 248 249 249 249 250 250 250 250 250 250 250 249 248 248 248 248 248 248 248 248 249 249 250 251 252 253 254 255 256 257 257 258 259 259 260 260 261 261 261 262 263 263 264 265 266 267 268 269 270 270 270 270 270 269 269 269 269 269 270 270 271 271 271 272 272 273 273 273 273 274 274 275 275 276 276 277 277 277
251 251 251 250 250 250 249 249 250 250 250 250 251 251 251 252 252 252 252 252 251 250 250 249 249 249 249 250 250 251 252 252 253 254 255 256 257 258 258 259 260 261 261 261 261 261 261 262 262 263 264 265 266 267 268 269 269 270 270 270 270 270 270 270 270 270 270 270 271 271 271 271 272 272 272 273 273 273 274 274 275 275 276 277 277
255 254 254 253 253 252 252 251 251 251 251 251 251 252 252 252 252 253 253 253 253 253 253 253 252 252 252 252 252 252 252 253 254 255 255 256 257 258 259 260 260 261 262 262 262 262 262 262 262 263 263 264 265 266 266 267 267 268 268 269 269 270 270 271 271 271 272 272 272 272 272 272 272 273 273 273 273 274 274 274 275 275 276 276 277
258 257 257 256 256 255 255 254 253 253 253 253 252 253 253 253 253 253 253 254 254 254 254 254 254 254 254 254 254 254 254 254 254 255 256 256 257 258 258 259 260 260 261 262 262 263 263 263 263 264 264 264 265 265 266 266 266 267 267 268 268 269 269 270 270 271 271 272 272 272 273 273 273 274 274 274 275 275 275 275 276 276 277 277 277
261 260 259 258 258 258 257 257 256 256 255 255 254 254 254 254 254 254 254 254 254 254 255 255 255 255 255 256 256 256 256 256 256 256 257 257 258 258 259 259 260 260 261 261 262 262 263 263 264 264 265 265 265 266 266 266 267 267 268 268 268 269 269 269 270 270 270 271 271 271 272 272 273 273 274 274 275 275 275 276 276 276 277 277 278
Height
11003 11003 11003 11004 11005 11005 11006 11006 11007 11007 11007 11007 11008 11008 11009 11009 11009 11009 11009 11009 11009 11009 11009 11009 11009 11009 11010 11010 11011 11011 11012 11013 11013 11013 11014 11014 11014 11014 11014 11014 11014 11014 11014 11014 11014 11013 11013 11013 11013 11012 11012 11012 11011 11011 11010 11010 11009 11008 11007 11007 11006 11005 11005 11003 11002 11001 10999 10998 10996 10995 10994 10993 10992 10992 10991 10990 10989 10988 10987 10986 10985 10985 10984 10983 10982
11001 11001 11002 11002 11003 11004 11005 11006 11006 11007 11007 11007 11008 11008 11009 11009 11010 11010 11010 11010 11010 11010 11010 11010 11010 11010 11010 11011 11011 11012 11013 11013 11014 11014 11014 11015 11015 11015 11015 11015 11015 11014 11014 11014 11014 11014 11014 11014 11013 11013 11012 11012 11012 11011 11011 11010 11010 11009 11008 11008 11007 11006 11006 11005 11004 11002 11001 11000 10998 10997 10996 10995 10994 10993 10992 10992 10991 10990 10989 10988 10987 10987 10986 10985 10984
10998 10999 11000 11000 11001 11002 11003 11004 11005 11005 11006 11006 11007 11008 11008 11009 11009 11010 11010 11011 11011 11010 11010 11010 11010 11010 11011 11011 11011 11012 11012 11013 11014 11014 11015 11015 11015 11015 11015 11015 11015 11015 11015 11015 11015 11014 11014 11014 11014 11013 11013 11012 11012 11012 11011 11011 11010 11010 11009 11008 11008 11007 11007 11006 11005 11004 11003 11002 11000 10999 10998 10997 10996 10995 10994 10994 10993 10992 10991 10990 10990 10989 10988 10987 10986
10996 10997 10998 10998 10999 11000 11001 11002 11003 11004 11004 11005 11006 11007 11007 11008 11008 11009 11010 11010 11010 11011 11011 11011 11011 11011 11011 11011 11011 11012 11012 11013 11013 11014 11014 11014 11015 11015 11015 11015 11015 11015 11015 11015 11015 11015 11014 11014 11014 11014 11013 11013 11012 11012 11011 11011 11011 11010 11009 11009 11009 11008 11008 11007 11006 11006 11005 11003 11002 11001 11000 10999 10998 10997 10996 10995 10995 10994 10993 10993 10992 10991 10990 10989 10988
10994 10995 10995 10996 10997 10998 10999 11000 11001 11002 11002 11003 11004 11005 11006 11006 11007 11007 11008 11009 11010 11010 11010 11011 11011 11011 11011 11011 11011 11012 11012 11013 11013 11013 11014 11014 11014 11014 11015 11015 11015 11015 11015 11015 11015 11014 11014 11014 11014 11014 11013 11013 11013 11012 11012 11011 11011 11010 11010 11009 11009 11009 11008 11008 11007 11007 11006 11005 11004 11003 11002 11001 11000 10999 10998 10997 10996 10996 10995 10995 10994 10993 10992 10991 10991
10990 10991 10993 10994 10995 10996 10997 10998 10999 11000 11001 11001 11002 11003 11004 11005 11005 11006 11006 11007 11008 11008 11009 11010 11010 11010 11011 11011 11011 11012 11012 11012 11013 11013 11014 11014 11014 11014 11014 11014 11014 11014 11014 11014 11014 11014 11014 11014 11013 11013 11013 11012 11012 11012 11012 11011 11011 11010 11010 11010 11009 11009 11009 11008 11008 11008 11007 11006 11006 11005 11004 11003 11002 11001 11000 10999 10998 10997 10997 10996 10995 10994 10994 10993 10992
10985 10988 10990 10992 10993 10994 10995 10996 10997 10998 10998 10999 11000 11002 11003 11003 11004 11004 11005 11005 11006 11006 11007 11008 11008 11009 11010 11010 11011 11011 11012 11012 11012 11013 11013 11014 11014 11014 11014 11014 11014 11014 11014 11014 11014 11013 11013 11013 11013 11013 11012 11012 11012 11011 11011 11011 11011 11010 11010 11010 11010 11009 11009 11008 11008 11008 11008 11007 11007 11006 11005 11004 11003 11002 11001 11001 11000 10999 10998 10997 10996 10996 10995 10994 10994
10981 10984 10987 10988 10989 10991 10992 10993 10995 10996 10997 10997 10998 10999 11000 11001 11002 11003 11003 11003 11004 11004 11005 11006 11007 11008 11008 11009 11010 11011 11011 11011 11012 11012 11013 11013 11013 11013 11013 11013 11013 11013 11013 11013 11013 11013 11013 11012 11012 11012 11012 11012 11012 11011 11011 11011 11010 11010 11010 11010 11010 11010 11009 11009 11009 11009 11008 11008 11007 11007 11006 11005 11004 11003 11002 11002 11001 11000 10999 10998 10997 10996 10996 10995 10995
10978 10980 10983 10984 10986 10987 10988 10990 10992 10993 10994 10995 10996 10997 10998 10999 11000 11000 11001 11002 11002 11003 11003 11004 11005 11006 11007 11008 11009 11009 11010 11010 11010 11011 11011 11012 11012 11012 11012 11012 11013 11013 11013 11013 11012 11012 11012 11012 11012 11012 11012 11012 11011 11011 11011 11010 11010 11010 11009 11009 11009 11009 11009 11009 11009 11009 11009 11008 11008 11007 11006 11006 11005 11004 11003 11002 11001 11000 11000 10999 10998 10997 10996 10996 10995
10974 10976 10978 10980 10982 10983 10985 10986 10988 10989 10991 10992 10993 10994 10994 10996 10996 10997 10998 10999 11000 11000 11001 11002 11003 11004 11005 11006 11007 11008 11008 11008 11009 11009 11010 11010 11011 11011 11011 11011 11012 11012 11012 11012 11012 11012 11012 11012 11012 11012 11011 11011 11011 11010 11010 11009 11009 11009 11009 11009 11008 11008 11008 11008 11009 11010 11009 11008 11008 11007 11007 11006 11005 11004 11003 11002 11001 11001 11000 10999 10999 10998 10997 10997 10996
10969 10971 10973 10975 10977 10979 10980 10983 10984 10986 10987 10988 10989 10990 10991 10992 10993 10994 10995 10995 10996 10997 10997 10999 11000 11002 11003 11004 11005 11005 11006 11006 11007 11008 11008 11009 11009 11009 11010 11010 11010 11011 11011 11011 11011 11011 11011 11011 11011 11011 11010 11010 11009 11009 11008 11008 11007 11007 11007 11007 11007 11007 11007 11006 11008 11010 11009 11007 11007 11006 11006 11005 11005 11005 11004 11003 11002 11001 11000 10999 10999 10999 10998 10997 10996
10963 10965 10967 10970 10972 10973 10975 10977 10980 10982 10983 10984 10986 10987 10988 10989 10990 10991 10992 10992 10992 10993 10993 10994 10996 10997 10999 11000 11001 11003 11003 11004 11004 11005 11005 11006 11006 11007 11007 11008 11008 11008 11009 11009 11009 11009 11009 11009 11009 11009 11008 11008 11007 11006 11005 11005 11005 11005 11005 11006 11006 11006 11006 11005 11007 11009 11008 11006 11006 11005 11004 11004 11004 11004 11003 11003 11002 11001 11000 10999 10999 10998 10998 10998 10997
10956 10959 10962 10964 10966 10967 10969 10971 10973 10977 10979 10981 10982 10983 10984 10985 10986 10987 10988 10988 10989 10989 10989 10990 10991 10993 10994 10996 10997 10999 11000 11000 11001 11001 11002 11002 11002 11003 11004 11004 11005 11006 11007 11007 11007 11007 11007 11007 11007 11007 11006 11006 11005 11004 11003 11002 11003 11003 11003 11004 11004 11004 11004 11004 11005 11005 11005 11005 11004 11004 11003 11003 11002 11002 11001 11001 11001 11001 11000 10999 10998 10998 10997 10997 10996
10951 10954 10957 10959 10961 10963 10965 10966 10968 10970 10972 10974 10976 10978 10980 10981 10982 10983 10984 10984 10984 10985 10985 10986 10987 10988 10989 10991 10992 10994 10996 10996 10996 10996 10997 10998 10998 10998 10999 11001 11002 11003 11003 11004 11005 11005 11005 11005 11005 11004 11004 11004 11004 11003 11002 11001 11002 11002 11002 11002 11002 11002 11002 11002 11002 11002 11002 11002 11002 11002 11001 11001 11000 11000 10999 10999 10999 10999 10999 10998 10998 10997 10996 10996 10996
10946 10949 10952 10954 10956 10958 10960 10962 10964 10964 10965 10966 10969 10972 10974 10976 10977 10978 10980 10979 10979 10979 10980 10980 10981 10983 10984 10986 10987 10989 10990 10992 10992 10992 10993 10993 10994 10994 10995 10997 10998 10999 10999 11000 11001 11001 11001 11001 11001 11002 11002 11002 11002 11001 11000 11000 11000 11000 11000 11000 11001 11000 11000 10999 10999 10999 10999 10999 10999 10999 10999 10999 10998 10998 10997 10997 10997 10997 10996 10996 10996 10996 10995 10995 10994
10941 10944 10947 10950 10952 10953 10955 10956 10958 10959 10960 10960 10962 10965 10968 10969 10971 10973 10974 10973 10972 10973 10974 10975 10976 10977 10979 10980 10982 10983 10985 10986 10986 10987 10988 10988 10989 10989 10990 10992 10993 10994 10995 10995 10996 10997 10997 10997 10998 10998 10999 10999 10999 10998 10998 10998 10997 10997 10997 10998 10998 10998 10997 10997 10996 10996 10996 10996 10996 10996 10996 10996 10996 10995 10995 10995 10994 10994 10994 10993 10993 10993 10993 10992 10992
10936 10939 10942 10945 10946 10946 10948 10949 10951 10953 10954 10954 10956 10959 10961 10963 10965 10966 10965 10965 10966 10967 10968 10969 10970 10971 10973 10974 10976 10977 10978 10979 10981 10982 10982 10983 10984 10985 10986 10987 10988 10989 10990 10991 10992 10992 10993 10994 10994 10995 10995 10996 10995 10995 10995 10995 10994 10993 10993 10994 10995 10995 10994 10993 10993 10992 10992 10992 10993 10993 10993 10993 10993 10992 10992 10992 10992 10991 10991 10991 10990 10990 10990 10989 10989
10929 10932 10935 10937 10937 10938 10941 10943 10944 10946 10947 10947 10949 10951 10953 10956 10958 10958 10958 10959 10960 10961 10962 10964 10965 10966 10968 10968 10968 10970 10972 10973 10976 10977 10977 10978 10979 10980 10982 10982 10983 10984 10985 10986 10987 10987 10988 10989 10990 10990 10991 10991 10991 10991 10991 10991 10991 10990 10990 10991 10992 10992 10991 10990 10989 10988 10988 10988 10988 10989 10989 10989 10989 10989 10989 10989 10989 10988 10988 10988 10988 10987 10987 10986 10985
10921 10924 10927 10928 10928 10930 10933 10935 10936 10938 10939 10940 10942 10944 10946 10949 10951 10951 10951 10953 10954 10955 10956 10958 10959 10961 10963 10962 10962 10963 10965 10967 10971 10972 10972 10972 10974 10975 10976 10977 10978 10979 10980 10980 10981 10982 10983 10984 10985 10986 10986 10987 10987 10987 10987 10987 10987 10987 10987 10987 10988 10988 10987 10986 10985 10984 10984 10983 10983 10984 10984 10984 10984 10985 10985 10985 10985 10985 10985 10985 10985 10985 10984 10983 10982
10912 10915 10917 10919 10920 10923 10926 10927 10928 10930 10932 10934 10936 10938 10940 10941 10942 10943 10945 10946 10948 10950 10951 10951 10953 10956 10957 10957 10957 10958 10959 10961 10964 10966 10966 10967 10969 10970 10971 10972 10972 10973 10974 10975 10976 10977 10978 10980 10981 10981 10981 10982 10982 10982 10982 10983 10983 10983 10983 10983 10983 10983 10982 10981 10980 10980 10979 10979 10979 10979 10979 10980 10980 10980 10980 10980 10980 10981 10981 10981 10981 10981 10980 10979 10978
10904 10908 10910 10912 10914 10916 10918 10919 10921 10922 10924 10927 10929 10931 10933 10934 10934 10935 10938 10939 10941 10944 10945 10944 10945 10948 10950 10950 10952 10953 10954 10954 10956 10958 10960 10961 10963 10964 10965 10966 10967 10968 10968 10969 10970 10971 10973 10974 10976 10976 10976 10976 10977 10977 10977 10978 10978 10978 10978 10978 10978 10978 10977 10977 10976 10976 10975 10974 10974 10974 10974 10974 10975 10975 10975 10975 10975 10975 10975 10975 10975 10975 10974 10973 10972
10896 10900 10903 10906 10908 10909 10910 10912 10914 10915 10917 10919 10921 10923 10925 10927 10927 10927 10929 10931 10933 10935 10936 10936 10937 10939 10942 10943 10944 10946 10948 10948 10949 10951 10953 10954 10956 10957 10958 10959 10961 10962 10962 10963 10964 10965 10967 10969 10970 10970 10971 10971 10972 10972 10973 10973 10973 10973 10973 10972 10972 10973 10973 10972 10972 10971 10970 10969 10969 10969 10969 10969 10969 10969 10969 10969 10969 10969 10969 10969 10969 10968 10968 10967 10966
10888 10892 10895 10898 10901 10902 10903 10904 10906 10908 10910 10911 10913 10915 10917 10919 10919 10920 10921 10922 10923 10925 10926 10927 10929 10932 10934 10936 10937 10939 10941 10942 10943 10945 10946 10947 10948 10950 10951 10952 10954 10956 10957 10957 10958 10959 10961 10962 10964 10965 10965 10966 10967 10967 10968 10968 10968 10969 10968 10967 10967 10967 10967 10966 10966 10966 10964 10964 10964 10964 10963 10963 10963 10963 10963 10963 10963 10963 10963 10963 10962 10962 10961 10961 10960
10880 10883 10887 10890 10892 10894 10896 10896 10898 10900 10902 10903 10905 10907 10909 10910 10911 10912 10913 10913 10914 10916 10918 10920 10922 10924 10927 10929 10931 10932 10933 10935 10936 10938 10939 10940 10942 10943 10944 10945 10947 10949 10950 10950 10952 10953 10954 10956 10957 10959 10960 10960 10961 10962 10962 10962 10962 10963 10963 10962 10962 10962 10962 10961 10960 10959 10958 10958 10959 10958 10957 10956 10956 10957 10957 10957 10957 10957 10957 10957 10956 10956 10955 10954 10953
10870 10874 10878 10881 10884 10886 10888 10889 10890 10892 10894 10895 10897 10899 10901 10902 10903 10904 10905 10905 10907 10908 10910 10912 10914 10915 10919 10922 10923 10923 10925 10927 10928 10929 10931 10933 10935 10937 10938 10940 10941 10941 10942 10944 10945 10946 10948 10949 10950 10951 10952 10953 10954 10954 10955 10955 10956 10956 10957 10957 10957 10956 10956 10955 10953 10952 10951 10951 10952 10952 10951 10950 10950 10950 10950 10950 10949 10949 10949 10949 10949 10949 10948 10947 10946
10861 10865 10868 10871 10874 10877 10879 10880 10882 10883 10885 10887 10889 10891 10892 10894 10895 10896 10897 10898 10899 10900 10901 10903 10904 10906 10909 10911 10912 10914 10917 10918 10918 10919 10922 10925 10928 10930 10932 10933 10934 10934 10934 10937 10938 10939 10940 10942 10943 10944 10945 10945 10946 10946 10947 10948 10948 10949 10950 10950 10949 10949 10949 10948 10946 10945 10945 10945 10944 10944 10944 10944 10944 10943 10942 10942 10942 10941 10941 10941 10941 10940 10940 10939 10939
10851 10854 10858 10861 10864 10867 10869 10871 10873 10874 10876 10878 10880 10881 10883 10884 10886 10887 10888 10889 10890 10891 10893 10894 10895 10897 10899 10901 10903 10906 10908 10909 10909 10911 10914 10917 10919 10921 10923 10925 10926 10926 10927 10928 10929 10931 10932 10934 10935 10936 10937 10938 10938 10939 10939 10940 10940 10941 10941 10941 10941 10940 10940 10940 10939 10938 10939 10938 10937 10937 10936 10936 10936 10935 10935 10935 10935 10934 10933 10933 10932 10932 10931 10930 10930
10840 10843 10847 10850 10853 10856 10859 10861 10863 10864 10866 10868 10870 10872 10873 10875 10876 10878 10879 10880 10881 10883 10884 10886 10887 10888 10889 10891 10894 10896 10898 10899 10901 10903 10905 10907 10908 10910 10913 10915 10917 10918 10918 10919 10921 10922 10924 10925 10926 10927 10928 10929 10930 10930 10931 10932 10933 10933 10933 10932 10932 10931 10930 10931 10931 10931 10932 10931 10930 10929 10928 10928 10927 10926 10926 10927 10927 10926 10925 10925 10924 10923 10922 10921 10920
10829 10832 10835 10838 10842 10844 10847 10850 10853 10855 10856 10858 10860 10861 10863 10865 10866 10868 10869 10871 10872 10874 10875 10877 10878 10879 10881 10883 10885 10887 10888 10889 10891 10893 10895 10897 10898 10900 10902 10905 10907 10909 10911 10912 10912 10913 10914 10915 10916 10917 10919 10920 10921 10922 10923 10924 10925 10925 10925 10924 10921 10919 10921 10924 10924 10923 10923 10923 10922 10920 10920 10919 10918 10917 10917 10918 10918 10916 10916 10915 10915 10914 10913 10912 10910
10817 10820 10823 10826 10829 10832 10835 10838 10841 10844 10845 10847 10849 10851 10853 10854 10856 10858 10859 10861 10862 10864 10865 10867 10868 10870 10872 10874 10876 10877 10878 10879 10881 10882 10884 10886 10888 10890 10892 10894 10896 10899 10901 10903 10903 10904 10905 10906 10907 10908 10910 10911 10912 10912 10914 10915 10915 10915 10916 10916 10912 10908 10909 10914 10916 10915 10914 10914 10913 10912 10911 10910 10909 10908 10907 10907 10907 10906 10906 10905 10905 10905 10904 10902 10901
10805 10808 10811 10814 10817 10820 10823 10826 10829 10832 10834 10836 10838 10840 10842 10844 10845 10847 10848 10850 10851 10853 10855 10857 10858 10860 10862 10864 10866 10867 10868 10869 10871 10872 10873 10875 10878 10880 10882 10884 10886 10888 10890 10891 10892 10894 10895 10896 10897 10898 10900 10901 10902 10902 10903 10904 10905 10905 10905 10906 10905 10900 10897 10900 10904 10905 10904 10903 10903 10902 10901 10900 10899 10898 10897 10897 10897 10896 10896 10896 10895 10895 10894 10893 10891
10793 10796 10799 10802 10805 10808 10810 10813 10816 10819 10821 10824 10826 10829 10831 10833 10834 10835 10837 10838 10840 10841 10843 10845 10847 10849 10852 10854 10855 10856 10858 10859 10860 10861 10862 10864 10866 10869 10871 10873 10875 10877 10878 10879 10881 10882 10883 10885 10886 10887 10889 10890 10891 10891 10892 10892 10893 10893 10892 10893 10895 10893 10889 10888 10891 10893 10893 10892 10891 10890 10889 10888 10887 10887 10886 10886 10886 10886 10886 10885 10885 10884 10883 10882 10880
10780 10783 10786 10789 10792 10795 10798 10801 10804 10806 10809 10811 10814 10816 10819 10821 10822 10824 10825 10827 10828 10829 10831 10833 10835 10837 10840 10842 10844 10845 10847 10848 10850 10850 10851 10853 10855 10857 10859 10861 10863 10865 10867 10868 10870 10870 10871 10873 10874 10875 10877 10878 10878 10879 10879 10879 10879 10880 10880 10880 10881 10881 10880 10879 10880 10881 10881 10880 10879 10878 10877 10876 10875 10874 10874 10874 10874 10874 10874 10874 10873 10872 10871 10870 10868
10766 10769 10773 10776 10779 10782 10784 10787 10790 10793 10796 10798 10801 10804 10806 10808 10810 10812 10814 10815 10816 10818 10819 10821 10823 10825 10827 10829 10831 10833 10835 10836 10838 10839 10841 10842 10844 10845 10847 10849 10851 10853 10855 10856 10858 10859 10860 10861 10862 10864 10865 10866 10867 10867 10866 10866 10866 10868 10868 10867 10867 10867 10867 10867 10867 10868 10869 10869 10868 10867 10866 10864 10863 10862 10862 10862 10862 10862 10862 10861 10860 10860 10859 10857 10855
10752 10755 10759 10762 10765 10767 10770 10773 10776 10779 10782 10785 10788 10791 10793 10795 10797 10799 10801 10803 10804 10806 10807 10809 10810 10812 10814 10816 10818 10821 10823 10824 10826 10827 10829 10831 10832 10834 10835 10837 10839 10841 10842 10844 10846 10847 10848 10849 10850 10851 10853 10854 10855 10854 10853 10853 10854 10855 10856 10856 10855 10855 10854 10854 10853 10854 10854 10855 10855 10855 10854 10852 10851 10851 10850 10850 10850 10850 10849 10849 10848 10847 10845 10843 10842
10738 10742 10745 10748 10751 10754 10757 10759 10762 10765 10768 10771 10774 10777 10780 10782 10783 10785 10787 10789 10791 10793 10795 10797 10798 10800 10802 10803 10805 10807 10809 10810 10812 10814 10817 10819 10821 10822 10823 10824 10826 10828 10830 10832 10833 10834 10835 10836 10837 10838 10839 10840 10841 10841 10841 10841 10841 10842 10842 10843 10844 10843 10843 10842 10841 10841 10840 10839 10839 10839 10839 10839 10839 10839 10838 10838 10837 10837 10836 10836 10834 10833 10831 10830 10829
10725 10728 10731 10735 10737 10740 10743 10746 10749 10751 10754 10757 10759 10762 10765 10768 10770 10771 10773 10775 10777 10780 10782 10784 10786 10788 10789 10791 10792 10794 10795 10796 10798 10800 10803 10805 10807 10809 10810 10811 10813 10815 10817 10819 10820 10821 10822 10823 10824 10825 10825 10826 10827 10827 10827 10828 10828 10828 10828 10829 10830 10830 10830 10831 10830 10829 10828 10827 10826 10826 10825 10825 10824 10824 10824 10823 10823 10822 10822 10821 10820 10818 10817 10816 10815
10712 10715 10718 10721 10724 10727 10729 10731 10734 10737 10739 10742 10745 10748 10751 10754 10756 10757 10758 10760 10763 10765 10768 10770 10772 10775 10776 10778 10779 10780 10782 10783 10785 10787 10789 10791 10793 10795 10797 10798 10799 10801 10803 10805 10806 10807 10808 10809 10810 10811 10812 10813 10814 10814 10813 10814 10814 10814 10814 10814 10815 10816 10817 10817 10817 10816 10815 10815 10815 10814 10813 10813 10811 10810 10810 10809 10808 10807 10806 10805 10804 10803 10802 10801 10800
10699 10701 10704 10707 10710 10713 10715 10717 10720 10722 10724 10727 10730 10733 10736 10739 10741 10743 10744 10746 10748 10751 10753 10756 10758 10760 10762 10764 10766 10767 10769 10770 10772 10774 10776 10778 10780 10781 10783 10785 10786 10787 10789 10790 10792 10793 10794 10794 10796 10797 10798 10798 10799 10800 10800 10800 10800 10800 10800 10801 10801 10802 10802 10803 10803 10802 10801 10800 10799 10799 10799 10798 10798 10797 10796 10795 10793 10792 10791 10790 10790 10788 10787 10786 10785
10684 10686 10689 10692 10694 10697 10700 10703 10705 10707 10709 10711 10714 10716 10719 10723 10725 10728 10729 10731 10733 10736 10738 10741 10743 10745 10747 10749 10751 10753 10755 10756 10758 10760 10762 10764 10766 10768 10770 10771 10773 10774 10775 10776 10778 10778 10779 10780 10781 10782 10782 10783 10784 10785 10785 10786 10786 10786 10786 10786 10787 10788 10789 10789 10789 10789 10787 10786 10784 10783 10782 10782 10782 10782 10781 10780 10778 10777 10776 10775 10774 10773 10772 10771 10769
10668 10671 10674 10676 10679 10681 10684 10686 10689 10691 10693 10695 10698 10700 10703 10706 10709 10711 10714 10715 10717 10720 10723 10725 10727 10729 10732 10734 10736 10738 10740 10741 10744 10746 10748 10749 10751 10754 10756 10758 10759 10760 10762 10762 10763 10764 10765 10765 10766 10767 10767 10768 10768 10769 10770 10770 10771 10771 10771 10772 10772 10773 10774 10774 10775 10774 10773 10772 10770 10768 10767 10767 10767 10767 10765 10764 10763 10762 10761 10759 10758 10757 10757 10755 10754
10652 10655 10657 10660 10663 10665 10667 10670 10672 10675 10677 10680 10682 10684 10686 10689 10691 10695 10697 10699 10701 10703 10706 10709 10711 10713 10715 10717 10719 10721 10723 10725 10727 10730 10732 10734 10736 10738 10741 10743 10745 10746 10747 10748 10749 10750 10750 10751 10751 10751 10752 10752 10753 10753 10754 10754 10755 10756 10756 10757 10757 10758 10758 10759 10758 10757 10756 10755 10754 10753 10752 10752 10752 10750 10749 10748 10747 10746 10745 10743 10742 10741 10740 10739 10737
10635 10638 10640 10643 10645 10648 10650 10653 10655 10658 10661 10663 10665 10667 10670 10672 10674 10677 10680 10682 10684 10686 10688 10691 10694 10696 10698 10700 10702 10704 10706 10708 10710 10712 10715 10717 10719 10722 10724 10726 10728 10730 10732 10733 10734 10735 10735 10736 10736 10736 10736 10736 10736 10737 10737 10738 10739 10740 10740 10741 10742 10742 10742 10742 10741 10740 10739 10737 10736 10736 10736 10736 10735 10733 10731 10730 10729 10728 10727 10726 10725 10724 10723 10721 10719
10617 10620 10623 10625 10628 10630 10632 10634 10637 10639 10642 10645 10647 10649 10652 10654 10657 10659 10661 10664 10666 10668 10671 10673 10676 10679 10681 10683 10685 10687 10689 10691 10693 10695 10697 10700 10702 10704 10706 10709 10711 10712 10714 10715 10716 10717 10718 10718 10719 10719 10719 10720 10720 10720 10720 10721 10721 10722 10723 10724 10725 10725 10725 10724 10723 10722 10721 10721 10720 10719 10719 10719 10718 10716 10714 10713 10711 10709 10708 10707 10706 10705 10705 10703 10702
10600 10602 10605 10607 10610 10612 10614 10616 10618 10620 10622 10625 10627 10630 10633 10636 10639 10641 10643 10645 10647 10650 10653 10655 10658 10661 10663 10665 10667 10669 10671 10673 10675 10678 10680 10682 10684 10686 10688 10691 10692 10693 10695 10696 10697 10698 10698 10699 10699 10700 10700 10701 10701 10702 10702 10703 10704 10704 10705 10706 10706 10706 10706 10705 10704 10704 10704 10703 10703 10702 10701 10700 10699 10698 10697 10696 10694 10692 10690 10688 10687 10686 10685 10684 10683
10582 10584 10586 10589 10591 10593 10595 10597 10599 10601 10603 10605 10607 10610 10613 10616 10619 10622 10624 10626 10629 10631 10634 10637 10640 10643 10645 10647 10649 10651 10654 10656 10658 10660 10661 10663 10665 10667 10669 10671 10673 10674 10674 10675 10676 10678 10679 10679 10680 10681 10681 10681 10682 10683 10683 10684 10686 10687 10687 10687 10687 10687 10686 10686 10685 10685 10685 10684 10684 10683 10683 10682 10681 10680 10679 10677 10676 10674 10672 10670 10668 10667 10666 10665 10663
10565 10566 10568 10570 10572 10574 10576 10578 10580 10582 10584 10586 10588 10590 10593 10596 10598 10600 10603 10606 10609 10613 10616 10618 10621 10623 10625 10628 10630 10633 10636 10638 10639 10641 10642 10643 10645 10647 10648 10650 10652 10653 10654 10655 10656 10658 10659 10660 10661 10662 10662 10663 10663 10663 10664 10666 10667 10668 10668 10667 10667 10667 10667 10667 10667 10666 10665 10664 10664 10664 10663 10663 10662 10661 10660 10659 10657 10656 10654 10652 10650 10648 10646 10645 10644
10550 10550 10551 10552 10554 10556 10557 10559 10561 10563 10565 10567 10568 10570 10572 10574 10576 10578 10581 10584 10588 10591 10595 10598 10601 10603 10605 10608 10611 10614 10616 10618 10620 10621 10622 10623 10624 10625 10627 10628 10629 10631 10632 10634 10635 10637 10638 10640 10641 10643 10644 10644 10645 10646 10647 10648 10649 10649 10648 10648 10647 10648 10648 10648 10648 10647 10646 10645 10645 10644 10644 10643 10643 10642 10641 10639 10638 10637 10635 10634 10632 10629 10627 10626 10624
10536 10535 10535 10535 10536 10537 10538 10540 10542 10543 10544 10546 10548 10550 10551 10553 10555 10557 10560 10562 10565 10568 10572 10576 10579 10582 10584 10587 10590 10593 10596 10598 10599 10600 10601 10602 10603 10604 10605 10606 10608 10609 10610 10611 10613 10615 10617 10619 10621 10623 10624 10625 10626 10628 10628 10628 10628 10628 10629 10629 10629 10629 10629 10629 10628 10627 10626 10625 10625 10624 10623 10623 10622 10622 10621 10620 10619 10618 10616 10614 10612 10610 10608 10607 10605
10522 10521 10520 10520 10519 10519 10519 10521 10522 10523 10524 10526 10527 10529 10530 10531 10533 10536 10538 10540 10543 10546 10549 10552 10555 10559 10562 10564 10567 10570 10573 10576 10577 10579 10580 10581 10581 10582 10583 10584 10586 10588 10589 10590 10592 10593 10596 10598 10601 10602 10603 10604 10605 10607 10608 10608 10608 10608 10608 10609 10609 10610 10610 10609 10609 10608 10607 10606 10605 10604 10603 10602 10601 10600 10600 10599 10598 10597 10595 10594 10592 10590 10588 10586 10584
10506 10506 10505 10504 10503 10503 10502 10502 10503 10504 10505 10506 10508 10509 10510 10511 10512 10514 10516 10518 10520 10523 10526 10528 10532 10535 10538 10541 10543 10545 10547 10551 10554 10557 10558 10559 10559 10560 10561 10563 10564 10566 10568 10570 10571 10573 10575 10577 10579 10580 10580 10581 10582 10584 10585 10585 10586 10587 10587 10587 10588 10588 10588 10588 10588 10588 10588 10587 10586 10585 10584 10583 10582 10581 10579 10578 10577 10576 10575 10573 10571 10570 10568 10566 10564